Regional Weather Roundup
Issued by NWS State College, PA

Home | Current Version | Previous Version | Graphics & Text | Print | Product List | Glossary Off
Versions: 1 2 3 4 5 6 7 8 9 10 11 12 13 14 15 16 17 18 19 20 21 22 23 24 25 26 27 28 29 30 31 32 33 34 35 36 37 38 39 40 41 42 43 44 45 46 47 48 49 50

000
ASUS41 KCTP 230810
RWRCTP

REGIONAL WEATHER ROUNDUP
NATIONAL WEATHER SERVICE STATE COLLEGE PA
400 AM EDT FRI JUN 23 2017

Note: "fair" indicates few or no clouds below 12,000 feet with no
significant weather and/or obstructions to visibility.

* = STATION THAT DOES NOT REPORT PRECIPITATION /E.G. RAIN...SNOW...ETC/
    THUNDER OR FOG.

PAZ002>004-007>009-013>016-020>023-029>032-230900-
WESTERN PENNSYLVANIA

CITY           SKY/WX    TMP DP  RH WIND       PRES   REMARKS
ERIE           CLEAR     74  67  78 SW13      29.76F
MEADVILLE      PTCLDY    70  68  93 S7        29.82F
FRANKLIN*      PTCLDY    68  64  88 S10       29.84F
NEW CASTLE     CLOUDY    71  67  87 VRB5      29.82F
BEAVER COUNTY  NOT AVBL
BUTLER*        PTCLDY    72  64  78 S8        29.84F
PITTSBURGH INT CLOUDY    71  67  87 S6        29.84F
PITTSBURGH     CLOUDY    71  63  75 S8        29.85F
INDIANA*       PTCLDY    70  68  94 SW7       29.90F
LATROBE        CLOUDY    72  68  88 S5        29.88F
WASHINGTON CO* CLOUDY    68  64  88 S3        29.87F
$$

PAZ004>006-010>012-017>019-024>028-033>037-041-042-045-046-049>053-230900-
CENTRAL PENNSYLVANIA

CITY           SKY/WX    TMP DP  RH WIND       PRES   REMARKS
BRADFORD       CLOUDY    69  67  93 SW6       29.86F
DUBOIS         PTCLDY    69  65  86 SW9       29.86F
CLEARFIELD     PTCLDY    65  65 100 SW3       29.88F FOG
JOHNSTOWN      CLOUDY    68  65  90 SW8       29.92F
ALTOONA        LGT RAIN  69  67  93 W5        29.90F
STATE COLLEGE  PTCLDY    67  66  95 S5        29.87F
WILLIAMSPORT   MOCLDY    68  67  96 CALM      29.83F
SELINSGROVE    CLOUDY    69  69 100 CALM      29.85F FOG
FT INDIANTOWN  FOG       70  70 100 CALM      29.86F VSB 1/2
CAPITAL CITY   CLOUDY    71  68  90 CALM      29.85F
HARRISBURG     CLOUDY    72  70  93 E3        29.84F
YORK           CLOUDY    69  69 100 CALM      29.85F
$$

PAZ038>040-043-044-047-048-054-055-060>062-067>071-230900-
EASTERN PENNSYLVANIA

CITY           SKY/WX    TMP DP  RH WIND       PRES   REMARKS
SCRANTON       CLOUDY    71  68  90 VRB3      29.85F
MOUNT POCONO   CLOUDY    68  66  93 W6        29.90F
ALLENTOWN      PTCLDY    73  68  84 W5        29.85F
QUAKERTOWN*    PTSUNNY   70  68  94 CALM      29.87F
READING        MOCLDY    72  72 100 CALM      29.85F FOG
LANCASTER      MOCLDY    73  72  96 CALM      29.86F FOG
COATESVILLE    CLOUDY    72  72 100 CALM      29.89F
POTTSTOWN      PTCLDY    70  70 100 CALM      29.87F
BLUE BELL      PTCLDY    73  72  94 SW3       29.87F
DOYLESTOWN     PTCLDY    73  70  90 CALM      29.85F
WILLOW GROVE   NOT AVBL
NORTH PHILA    CLOUDY    78  72  81 CALM      29.86F
PHILADELPHIA   MOCLDY    77  72  84 S8        29.86F
$$



USA.gov is the U.S. government's official web portal to all federal, state and local government web resources and services.